Location: Krakow
(50.0830°N, 19.9170°E)
Time: 04:40:34
(UTC+01:00)

Courier 1B Rocket - Pass Details

Date: 16 December 2023
Orbit: 920 x 1202 km, 28.2° (Epoch: 01 March)

Event Time Altitude Azimuth Distance (km) Brightness Sun altitude
Rises 09:46:37 0° 234° (SW) 4,006 8.3 12.7°
Reaches altitude 10° 09:52:00 10° 204° (SSW) 2,976 8.3 13.1°
Maximum altitude 09:54:03 11° 187° (S) 2,849 8.7 13.2°
Drops below altitude 10° 09:56:04 10° 170° (S) 2,917 9.6 13.4°
Sets 10:01:10 0° 139° (SE) 3,791 9.6 13.7°
